Regional Weather Roundup
Issued by NWS

Home | Current Version | Previous Version | Text Only | Print | Product List | Glossary Off
Versions: 1 2 3 4 5 6 7 8 9 10 11 12 13 14 15 16 17 18 19 20 21 22 23 24 25 26 27 28 29 30 31 32 33 34 35 36 37 38 39 40 41 42 43 44 45 46 47 48 49 50

000
ASUS43 KIND 010709
RWRIN

WEATHER ROUNDUP FOR INDIANA
NATIONAL WEATHER SERVICE INDIANAPOLIS IN
300 AM EDT FRI AUG 01 2014

NOTE: "FAIR" INDICATES FEW OR NO CLOUDS BELOW 12,000 FEET WITH NO
SIGNIFICANT WEATHER AND/OR OBSTRUCTIONS TO VISIBILITY.

* - STATION DOES NOT REPORT WEATHER SUCH AS PRECIPITATION OR FOG.

+ - STATION NOT QUALITY CONTROLLED BY THE NATIONAL WEATHER SERVICE.
    USE DATA WITH CAUTION...ESPECIALLY DEWPOINT AND RELATIVE
    HUMIDITY OBSERVATIONS.

INZ001>003-010>013-019-020-010800-
NORTHWEST INDIANA

CITY           SKY/WX    TMP DP  RH WIND       PRES   REMARKS
GARY /AIRPORT/ CLEAR     62  60  93 CALM      30.06S FOG
KNOX *+        CLEAR     61  58  90 SW3       30.06S
LA PORTE +     CLEAR     59  59 100 CALM      30.07S FOG
MICHIGAN CITY+ MOCLDY    63  61  94 CALM      30.06S
MONTICELLO +   CLEAR     63  61  93 CALM      30.07S
RENSSELAER +   CLEAR     59  59 100 CALM      30.07F FOG
VALPARAISO     PTCLDY    63  60  90 CALM      30.07S

$$

LMZ046-743>745-010800-
SOUTHERN LAKE MICHIGAN

STATION/POSITION TIME  TEMP WIND        PRES
                       AIR  DIR/SP/G
                 (UTC) (F)  (DEG/KT/KT) (MB)
MICHIGAN CITY    0700   69  180/  8/  9   N/A

$$

INZ004-005-014>016-021>024-010800-
NORTH CENTRAL INDIANA

CITY           SKY/WX    TMP DP  RH WIND       PRES   REMARKS
GOSHEN         CLEAR     64  60  87 CALM      30.06F
LOGANSPORT +   CLEAR     59  55  88 CALM      30.09S
PERU/GRISSOM   CLEAR     62  62 100 S2        30.08S
ROCHESTER +    CLEAR     68  61  77 SW3       30.08S
SOUTH BEND     MOCLDY    66  60  81 CALM      30.07S
WARSAW +       PTCLDY    63  61  94 CALM      30.07F

$$

INZ006>009-017-018-025>027-010800-
NORTHEAST INDIANA

CITY           SKY/WX    TMP DP  RH WIND       PRES   REMARKS
ANGOLA *+      PTCLDY    61  59  94 CALM      30.07F
AUBURN +       CLEAR     68  59  73 SW3       30.08S
FORT WAYNE     PTCLDY    61  58  90 CALM      30.08F
HUNTINGTON +   CLEAR     63  60  90 CALM      30.07F

$$

INZ028-029-035-036-043>045-051>053-010800-
WEST CENTRAL INDIANA

CITY           SKY/WX    TMP DP  RH WIND       PRES   REMARKS
GREENCASTLE +  CLEAR     61  61 100 CALM      30.09S FOG
LAFAYETTE      CLEAR     60  59  96 CALM      30.07S
TERRE HAUTE    CLEAR     60  58  92 CALM      30.07F

$$

INZ030>032-037>040-046>048-054>057-064-065-010800-
CENTRAL INDIANA

CITY           SKY/WX    TMP DP  RH WIND       PRES   REMARKS
CP ATTERBURY + CLEAR     59  59 100 CALM      30.09S FOG
INDIANAPOLIS   CLEAR     67  61  81 CALM      30.08S
-EAGLE CREEK   CLEAR     63  60  90 CALM      30.08F
KOKOMO *+      CLEAR     59  57  94 CALM      30.09S
MARION +       CLEAR     57  55  94 CALM      30.09F
MT COMFORT *+  CLEAR     59 N/A N/A CALM      30.09F
SHELBYVILLE    CLEAR     62  59  90 E5        30.08F FOG
ZIONSVILLE +     N/A     60  57  90 CALM      30.10S FOG

$$

INZ033-034-041-042-049-050-058-059-010800-
EAST CENTRAL INDIANA

CITY           SKY/WX    TMP DP  RH WIND       PRES   REMARKS
MUNCIE         CLEAR     60  56  86 CALM      30.09F

$$

INZ060-061-067>069-081>083-085>088-010800-
SOUTHWEST INDIANA

CITY           SKY/WX    TMP DP  RH WIND       PRES   REMARKS
EVANSVILLE     CLEAR     66  62  87 CALM      30.07F
WASHINGTON +   CLEAR     59  59 100 CALM      30.06F FOG

$$

INZ062-063-066-070>080-084-089>092-010800-
SOUTH CENTRAL AND SOUTHEAST INDIANA

CITY           SKY/WX    TMP DP  RH WIND       PRES   REMARKS
BEDFORD +      CLEAR     63  59  88 CALM      30.08
BLOOMINGTON    CLEAR     60  58  92 CALM      30.09S FOG
NORTH VERNON + CLEAR     61  61 100 CALM      30.09  FOG

$$




USA.gov is the U.S. government's official web portal to all federal, state and local government web resources and services.